Location: Votelez
(50.0000°N, 15.0000°E)
Time: 10:42:49
(UTC+01:00)

ISS - Pass Details

Date: 23 February 2026
Orbit: 416 x 426 km, 51.6° (Epoch: 9 March)

Event Time Altitude Azimuth Distance (km) Brightness Sun altitude
Exits shadow 05:49:19 18° 285° (WNW) 1,104 -2.2 -11.4°
Maximum altitude 05:51:40 66° 5° (N) 459 -3.6 -11.0°
Drops below altitude 10° 05:55:00 10° 89° (E) 1,492 0.7 -10.5°
Sets 05:57:06 0° 93° (E) 2,354 2.4 -10.1°
